| time (UTC) | temp F | wind direction | speed MPH | gust MPH | rain 1hr in | rain 24hr in | rain mn in | humidity % | barometer mb |
| 20260831013007 | 71 | 271 | 2.0 | 4.0 | 0.00 | 0.00 | 0.00 | 46 | 1004.8 |
| 20260831011506 | 72 | 271 | 2.0 | 5.0 | 0.00 | 0.00 | 0.00 | 44 | 1004.6 |
| 20260831010013 | 73 | 196 | 2.0 | 3.0 | 0.00 | 0.00 | 0.00 | 42 | 1004.7 |
| 20260831004505 | 74 | 157 | 0.0 | 0.0 | 0.00 | 0.00 | 0.00 | 43 | 1004.8 |
| 20260831003004 | 74 | 157 | 0.0 | 0.0 | 0.00 | 0.00 | 0.00 | 44 | 1004.9 |
| 20260831001503 | 74 | 157 | 0.0 | 0.0 | 0.00 | 0.00 | 0.00 | 44 | 1005.0 |
| 20260831000005 | 74 | 157 | 0.0 | 4.0 | 0.00 | 0.00 | 0.00 | 43 | 1005.0 |
| 20260830234503 | 74 | 102 | 0.0 | 5.0 | 0.00 | 0.00 | 0.00 | 41 | 1005.0 |
| 20260830233002 | 74 | 58 | 3.0 | 7.0 | 0.00 | 0.00 | 0.00 | 41 | 1005.0 |
| 20260830231502 | 74 | 77 | 1.0 | 5.0 | 0.00 | 0.00 | 0.00 | 44 | 1004.8 |
| 20260830230001 | 75 | 63 | 5.0 | 11.0 | 0.00 | 0.00 | 0.00 | 41 | 1004.8 |
| 20260830224503 | 75 | 14 | 6.0 | 10.0 | 0.00 | 0.00 | 0.00 | 38 | 1004.7 |
| 20260830223003 | 74 | 306 | 4.0 | 7.0 | 0.00 | 0.00 | 0.00 | 39 | 1004.4 |
| 20260830221600 | 74 | 257 | 2.0 | 8.0 | 0.00 | 0.00 | 0.00 | 40 | 1004.4 |
| 20260830220121 | 74 | 238 | 3.0 | 10.0 | 0.00 | 0.00 | 0.00 | 39 | 1004.5 |
| 20260830214604 | 75 | 249 | 7.0 | 15.0 | 0.00 | 0.00 | 0.00 | 38 | 1005.0 |
| 20260830213058 | 75 | 192 | 3.0 | 10.0 | 0.00 | 0.00 | 0.00 | 41 | 1005.0 |
| 20260830211602 | 74 | 267 | 8.0 | 14.0 | 0.00 | 0.00 | 0.00 | 41 | 1005.4 |
| 20260830210058 | 74 | 312 | 5.0 | 22.0 | 0.00 | 0.00 | 0.00 | 40 | 1005.5 |
| 20260830204555 | 76 | 228 | 6.0 | 19.0 | 0.00 | 0.00 | 0.00 | 38 | 1005.2 |
| 20260830203110 | 77 | 271 | 12.0 | 22.0 | 0.00 | 0.00 | 0.00 | 36 | 1005.4 |
| 20260830201553 | 77 | 202 | 4.0 | 8.0 | 0.00 | 0.00 | 0.00 | 46 | 1005.2 |
| 20260830200053 | 77 | 155 | 6.0 | 13.0 | 0.00 | 0.00 | 0.00 | 44 | 1004.6 |
| 20260830194549 | 77 | 109 | 4.0 | 9.0 | 0.00 | 0.00 | 0.00 | 44 | 1004.1 |
| 20260830193048 | 76 | 150 | 4.0 | 12.0 | 0.00 | 0.00 | 0.00 | 44 | 1003.3 |
| 20260830191547 | 76 | 172 | 2.0 | 6.0 | 0.00 | 0.00 | 0.00 | 43 | 1003.6 |
| 20260830190047 | 75 | 268 | 11.0 | 25.0 | 0.00 | 0.00 | 0.00 | 41 | 1004.0 |
| 20260830184546 | 80 | 5 | 17.0 | 24.0 | 0.00 | 0.00 | 0.00 | 34 | 1003.7 |
| 20260830183047 | 81 | 67 | 2.0 | 10.0 | 0.00 | 0.00 | 0.00 | 36 | 1003.0 |
| 20260830181549 | 81 | 63 | 2.0 | 9.0 | 0.00 | 0.00 | 0.00 | 38 | 1002.8 |
| 20260830180059 | 80 | 105 | 5.0 | 11.0 | 0.00 | 0.00 | 0.00 | 38 | 1002.9 |
| 20260830174551 | 81 | 128 | 4.0 | 7.0 | 0.00 | 0.00 | 0.00 | 36 | 1003.3 |
| 20260830173108 | 81 | 97 | 6.0 | 9.0 | 0.00 | 0.00 | 0.00 | 36 | 1003.5 |
| 20260830171554 | 80 | 134 | 1.0 | 5.0 | 0.00 | 0.00 | 0.00 | 38 | 1003.7 |
| 20260830170042 | 79 | 77 | 4.0 | 12.0 | 0.00 | 0.00 | 0.00 | 38 | 1003.8 |
| 20260830164540 | 81 | 267 | 0.0 | 5.0 | 0.00 | 0.00 | 0.00 | 35 | 1003.7 |
| 20260830163036 | 79 | 355 | 1.0 | 7.0 | 0.00 | 0.00 | 0.00 | 37 | 1003.9 |
| 20260830161540 | 77 | 329 | 8.0 | 13.0 | 0.00 | 0.00 | 0.00 | 38 | 1003.9 |
| 20260830160034 | 78 | 325 | 11.0 | 16.0 | 0.00 | 0.00 | 0.00 | 37 | 1004.2 |
| 20260830154532 | 76 | 334 | 13.0 | 17.0 | 0.00 | 0.00 | 0.00 | 39 | 1004.3 |
| 20260830153026 | 75 | 345 | 13.0 | 24.0 | 0.00 | 0.00 | 0.00 | 42 | 1004.4 |
| 20260830151521 | 73 | 275 | 2.0 | 6.0 | 0.00 | 0.00 | 0.00 | 43 | 1004.5 |
| 20260830150019 | 72 | 268 | 4.0 | 9.0 | 0.00 | 0.00 | 0.00 | 44 | 1004.2 |
| 20260830144522 | 72 | 253 | 3.0 | 6.0 | 0.00 | 0.00 | 0.00 | 44 | 1004.0 |
| 20260830143025 | 71 | 232 | 4.0 | 7.0 | 0.00 | 0.00 | 0.00 | 45 | 1004.2 |
| 20260830141516 | 69 | 271 | 3.0 | 5.0 | 0.00 | 0.00 | 0.00 | 48 | 1004.1 |
| 20260830140015 | 68 | 275 | 5.0 | 6.0 | 0.00 | 0.00 | 0.00 | 50 | 1004.0 |
| 20260830134533 | 67 | 184 | 0.0 | 3.0 | 0.00 | 0.00 | 0.00 | 54 | 1003.9 |
| 20260830133012 | 67 | 184 | 1.0 | 6.0 | 0.00 | 0.00 | 0.00 | 56 | 1003.7 |
| 20260830131510 | 67 | 184 | 2.0 | 3.0 | 0.00 | 0.00 | 0.00 | 51 | 1003.4 |
| 20260830130010 | 66 | 184 | 2.0 | 6.0 | 0.00 | 0.00 | 0.00 | 51 | 1003.4 |
| 20260830124509 | 66 | 210 | 4.0 | 7.0 | 0.00 | 0.00 | 0.00 | 53 | 1003.5 |
| 20260830123004 | 67 | 188 | 5.0 | 7.0 | 0.00 | 0.00 | 0.00 | 53 | 1003.0 |
| 20260830121600 | 68 | 165 | 0.0 | 3.0 | 0.00 | 0.00 | 0.00 | 49 | 1003.2 |
| 20260830120100 | 69 | 161 | 2.0 | 5.0 | 0.00 | 0.00 | 0.00 | 49 | 1002.7 |
| 20260830114557 | 70 | 297 | 5.0 | 8.0 | 0.00 | 0.00 | 0.00 | 44 | 1002.7 |
| 20260830113052 | 70 | 319 | 7.0 | 9.0 | 0.00 | 0.00 | 0.00 | 44 | 1002.6 |
| 20260830111552 | 70 | 331 | 5.0 | 8.0 | 0.00 | 0.00 | 0.00 | 43 | 1002.8 |
| 20260830110107 | 70 | 317 | 6.0 | 9.0 | 0.00 | 0.00 | 0.00 | 43 | 1002.3 |
| 20260830104548 | 70 | 316 | 5.0 | 6.0 | 0.00 | 0.00 | 0.00 | 43 | 1002.4 |
| 20260830103048 | 71 | 327 | 0.0 | 3.0 | 0.00 | 0.00 | 0.00 | 43 | 1002.5 |
| 20260830101546 | 72 | 339 | 4.0 | 12.0 | 0.00 | 0.00 | 0.00 | 42 | 1002.6 |
| 20260830100045 | 70 | 329 | 6.0 | 8.0 | 0.00 | 0.00 | 0.00 | 44 | 1002.7 |
| 20260830094545 | 70 | 333 | 4.0 | 6.0 | 0.00 | 0.00 | 0.00 | 45 | 1002.5 |
| 20260830093103 | 70 | 241 | 3.0 | 7.0 | 0.00 | 0.00 | 0.00 | 45 | 1002.4 |
| 20260830091541 | 70 | 161 | 3.0 | 5.0 | 0.00 | 0.00 | 0.00 | 45 | 1002.3 |
| 20260830090048 | 71 | 222 | 0.0 | 2.0 | 0.00 | 0.00 | 0.00 | 44 | 1002.3 |
| 20260830084540 | 72 | 222 | 1.0 | 4.0 | 0.00 | 0.00 | 0.00 | 42 | 1002.5 |
| 20260830083041 | 72 | 281 | 3.0 | 6.0 | 0.00 | 0.00 | 0.00 | 42 | 1002.5 |
| 20260830081538 | 71 | 258 | 2.0 | 8.0 | 0.00 | 0.00 | 0.00 | 44 | 1002.5 |
| 20260830080042 | 71 | 206 | 4.0 | 7.0 | 0.00 | 0.00 | 0.00 | 43 | 1002.4 |
| 20260830074558 | 70 | 254 | 3.0 | 7.0 | 0.00 | 0.00 | 0.00 | 45 | 1002.5 |
| 20260830073037 | 71 | 206 | 2.0 | 6.0 | 0.00 | 0.00 | 0.00 | 46 | 1002.4 |
| 20260830071536 | 72 | 178 | 0.0 | 6.0 | 0.00 | 0.00 | 0.00 | 45 | 1002.5 |
| 20260830070032 | 72 | 199 | 5.0 | 9.0 | 0.00 | 0.00 | 0.00 | 42 | 1002.7 |
| 20260830064534 | 71 | 146 | 3.0 | 7.0 | 0.00 | 0.00 | 0.00 | 44 | 1002.7 |
| 20260830063028 | 70 | 202 | 3.0 | 6.0 | 0.00 | 0.00 | 0.00 | 44 | 1002.9 |
| 20260830061528 | 71 | 275 | 1.0 | 5.0 | 0.00 | 0.00 | 0.00 | 42 | 1003.0 |
| 20260830060021 | 72 | 222 | 1.0 | 5.0 | 0.00 | 0.00 | 0.00 | 41 | 1002.8 |
| 20260830054525 | 73 | 217 | 2.0 | 8.0 | 0.00 | 0.00 | 0.00 | 40 | 1003.1 |
| 20260830053020 | 73 | 247 | 4.0 | 8.0 | 0.00 | 0.00 | 0.00 | 40 | 1003.1 |
| 20260830051537 | 72 | 248 | 3.0 | 7.0 | 0.00 | 0.00 | 0.00 | 42 | 1003.0 |
| 20260830050020 | 73 | 186 | 6.0 | 11.0 | 0.00 | 0.00 | 0.00 | 41 | 1003.2 |
| 20260830044520 | 74 | 205 | 5.0 | 9.0 | 0.00 | 0.00 | 0.00 | 39 | 1003.2 |
| 20260830043018 | 73 | 206 | 3.0 | 7.0 | 0.00 | 0.00 | 0.00 | 40 | 1003.3 |
| 20260830041543 | 73 | 256 | 4.0 | 9.0 | 0.00 | 0.00 | 0.00 | 40 | 1003.6 |
| 20260830040016 | 71 | 230 | 2.0 | 6.0 | 0.00 | 0.00 | 0.00 | 42 | 1003.8 |
| 20260830034518 | 71 | 204 | 1.0 | 5.0 | 0.00 | 0.00 | 0.00 | 45 | 1003.8 |
| 20260830033015 | 72 | 204 | 0.0 | 3.0 | 0.00 | 0.00 | 0.00 | 42 | 1003.7 |
| 20260830031516 | 73 | 204 | 2.0 | 4.0 | 0.00 | 0.00 | 0.00 | 42 | 1003.6 |
| 20260830030024 | 73 | 195 | 4.0 | 10.0 | 0.00 | 0.00 | 0.00 | 39 | 1003.4 |
| 20260830024514 | 74 | 163 | 0.0 | 5.0 | 0.00 | 0.00 | 0.00 | 40 | 1003.5 |
| 20260830023014 | 74 | 306 | 2.0 | 10.0 | 0.00 | 0.00 | 0.00 | 37 | 1002.8 |
| 20260830021514 | 74 | 284 | 8.0 | 17.0 | 0.00 | 0.00 | 0.00 | 38 | 1002.5 |
| 20260830020012 | 74 | 302 | 11.0 | 18.0 | 0.00 | 0.00 | 0.00 | 39 | 1002.4 |
| 20260830014512 | 73 | 291 | 18.0 | 30.0 | 0.00 | 0.00 | 0.00 | 39 | 1002.3 |